Home   Weather   Barcelona   Past weeks
Flag for Spain

Past Weather in Barcelona, Barcelona, Spain — February 2016

Now
57 °F

Passing clouds.


Feels Like: 55 °F
Forecast: 62 / 58 °F
Wind: 8 mph from Northwest

Location: Barcelona Airport

Current Time: May 23, 2019 at 5:35:20 am

Latest Report: May 23, 2019 at 5:00 am


Visibility: N/A

Pressure: 30.04 "Hg

Humidity: 88%

Dew Point: 54 °F

Location of BarcelonaLocation

February 2016 Weather in Barcelona — Graph

°F

High & Low Weather Summary for February 2016

 TemperatureHumidityPressure
High72 °F (Feb 13, 1:30 pm)100% (Feb 7, 6:00 am)30.60 "Hg (Feb 7, 6:00 am)
Low37 °F (Feb 16, 8:00 am)30% (Feb 16, 12:30 pm)29.18 "Hg (Feb 27, 6:00 am)
Average53 °F66%29.99 "Hg
* Reported Feb 1 12:30 am — Feb 29 11:00 pm, Barcelona. Weather by CustomWeather, © 2019

Note: Actual official high and low records may vary slightly from our data, if they occured in-between our weather recording intervals... More about our weather records

Advertising

Barcelona Weather History for February 1, 2016

Scroll right to see more
 ConditionsComfort  
Time TempWeatherWind HumidityBarometerVisibility
12:30 am
Mon, Feb 1
55 °FClear.10 mph72%30.39 "Hg10 mi
1:00 am54 °FClear.14 mph77%30.39 "Hg10 mi
1:30 am55 °FClear.14 mph72%30.39 "Hg10 mi
2:00 am55 °FClear.14 mph72%30.39 "Hg10 mi
2:30 am54 °FClear.17 mph77%30.39 "Hg10 mi
3:00 am54 °FClear.16 mph77%30.39 "Hg10 mi
3:30 am54 °FClear.17 mph77%30.39 "Hg10 mi
4:00 am54 °FPassing clouds.15 mph82%30.39 "HgN/A
4:30 am54 °FPassing clouds.16 mph77%30.36 "HgN/A
5:00 am52 °FPassing clouds.15 mph82%30.39 "HgN/A
5:30 am54 °FClear.18 mph82%30.39 "Hg10 mi
6:30 am54 °FClear.15 mph82%30.39 "Hg10 mi
7:00 am54 °FClear.12 mph82%30.39 "Hg10 mi
7:30 am54 °FClear.10 mph82%30.39 "Hg10 mi
8:00 am54 °FClear.16 mph82%30.42 "Hg10 mi
8:30 am54 °FPassing clouds.15 mph82%30.42 "HgN/A
9:00 am54 °FSunny.10 mph82%30.42 "Hg10 mi
9:30 am55 °FPassing clouds.14 mph77%30.42 "HgN/A
10:00 am57 °FPassing clouds.14 mph72%30.42 "HgN/A
10:30 am59 °FSunny.14 mph68%30.42 "Hg10 mi
11:00 am61 °FSunny.21 mph63%30.42 "Hg10 mi
11:30 am61 °FSunny.15 mph63%30.45 "Hg10 mi
12:00 pm61 °FSunny.16 mph63%30.42 "Hg10 mi
12:30 pm63 °FPassing clouds.14 mph59%30.42 "HgN/A
1:00 pm64 °FPassing clouds.13 mph56%30.42 "HgN/A
1:30 pm64 °FPassing clouds.12 mph56%30.39 "HgN/A
2:00 pm66 °FPassing clouds.12 mph52%30.39 "HgN/A
2:30 pm63 °FSunny.8 mph64%30.39 "Hg10 mi
3:00 pm63 °FSunny.13 mph64%30.39 "Hg10 mi
3:30 pm63 °FSunny.10 mph64%30.39 "Hg10 mi
4:00 pm63 °FSunny.12 mph64%30.36 "Hg10 mi
4:30 pm63 °FSunny.13 mph64%30.36 "Hg10 mi
5:00 pm61 °FSunny.10 mph72%30.36 "Hg10 mi
5:30 pm59 °FSunny.10 mph77%30.39 "Hg10 mi
6:00 pm59 °FSunny.9 mph77%30.39 "Hg10 mi
6:30 pm57 °FPassing clouds.6 mph82%30.39 "HgN/A
7:00 pm57 °FClear.1 mph82%30.39 "Hg10 mi
7:30 pm57 °FClear.5 mph82%30.42 "Hg10 mi
8:00 pm57 °FClear.5 mph77%30.42 "Hg10 mi
8:30 pm55 °FPassing clouds.6 mph82%30.42 "HgN/A
9:00 pm55 °FPassing clouds.5 mph77%30.42 "HgN/A
9:30 pm55 °FPassing clouds.3 mph77%30.42 "HgN/A
10:00 pm54 °FClear.1 mph82%30.42 "Hg10 mi
10:30 pm54 °FClear.3 mph77%30.42 "Hg10 mi
11:00 pm52 °FClear.7 mph82%30.42 "Hg10 mi
11:30 pm50 °FClear.5 mph82%30.42 "Hg10 mi
Weather by CustomWeather, © 2019

See weather overview